ONEWEB-0179, 48212

Orbit data source: Space-Track

ONEWEB-0179, 48212 is a payload satellite owned by One Web (NAA) (UK) in LEO that was launched on Sun, 25 Apr 2021 UTC via a SOYUZ-2-1B launch vehicle from the Vostochny Cosmodrome (VOSTO). Payload-class satellites include a variety of spacecraft equipped with specific instruments for various scientific and technological missions. These include communications satellites like Starlink; space stations such as the ISS; scientific satellites like the Hubble; Earth observation satellites from companies like Planet Labs, Umbra, and HawkEye 360; GPS; miniature CubeSats for education and research; and military/defense satellites.

Loading next visibility...
Identifier
48212, 2021-031C
Orbit
LEO
Country
Flag of UKUK
Related business
Manufacturer
One Web
Mission
Operational Commercial Communications
Bus & Motor
ARROW, Unknown motor
Mass
148 kg wet, ~140 kg dry
Launch date (UTC)
2021-04-25 (5 years ago)
Launch vehicle
SOYUZ-2-1B
Launch site
Vostochny Cosmodrome (VOSTO)
Object type
Payload
Rocket body
Debris
Shape & HBR
Trap Box + 2 Pan, 6.7 m
Radar Cross Section
3.464 m², Large (>1 m²)

Expand to show TLE details & history
Last TLE update: 8 hours ago

TLE from 8 hours ago
0 ONEWEB-0179
1 48212U 21031C   25346.93857512 -.00016186  00000-0 -43718-1 0  9992
2 48212  87.8997 326.7952 0001083  78.0800 282.0451 13.14584317223866
Epoch: 2025-12-12T22:31Z
TLE epoch observation values (Epoch: 2025-12-12T22:31:32.890Z)
Latitude
-0.00003°
Longitude
-92.96486°
Altitude
1,208.199 km
Speed
7.25 km/s
True Right ascension
21h 47m 10s
True Declination
0° 00' 00"
Sunlit
Object was in daylight at epoch
Visualization orbit readout
Latitude
Unknown
Longitude
Unknown
Altitude
Unknown
Speed
Unknown
Apparent Right ascension
Unknown
Apparent Declination
Unknown
Sunlit
N/A
Visualization observer readout
Local Sidereal Time
05:22:32
Azimuth
Unknown
Elevation
Unknown
Doppler factor
Unknown
Orbital elements
Apogee altitude
1,203.411 km
Perigee altitude
1,201.769 km
Semi-major axis
7,580.727 km
Eccentricity
0.00011
Inclination
87.8997°
RAAN
326.7952°
Arg. of periapsis
78.08°
True anomaly
282.03296°
Mean anomaly
282.0451°
Eccentric anomaly
282.03903°
Mean motion
3.28834 °/min
Orbital period
109.48 mins
BSTAR
-0.043718
Loading maneuver chart data...
Computing Atmospheric mass density...
Loading historical data...
Loading historical data...
Loading historical data...
Loading historical data...
Loading historical data...
Loading historical data...
Loading historical data...

Documentation

Showing up to 5 results
|